contact:dominique.lefevre@mio.osupytheas.fr, maurice.libes@osupytheas.fr, didier.mallarino@osupytheas.fr
Project:EMSO http://www.emso-fr.org/EMSO-France
Depth: 2436.0 m
Title:EMSO Ligure Ouest : Data MII capteur MICROCAT
DateTime_Computer,Latitude,Longitude,Temperature,Conductivity,Pressure,DateTime_Instrument
DateTime_Computer,Latitude,Longitude,degC,S m-1,dbar,DateTime_Instrument
2023-01-07T00:00:30Z,42.805,6.029,13.3075,4.60110,2470.544,2023-1-07T02:06:40Z
2023-01-07T00:03:33Z,42.805,6.029,13.3069,4.60098,2470.553,2023-1-07T02:09:43Z
2023-01-07T00:06:36Z,42.805,6.029,13.3065,4.60093,2470.553,2023-1-07T02:12:46Z
2023-01-07T00:09:39Z,42.805,6.029,13.3054,4.60097,2470.53,2023-1-07T02:15:49Z
2023-01-07T00:12:42Z,42.805,6.029,13.3055,4.60106,2470.591,2023-1-07T02:18:52Z
2023-01-07T00:15:45Z,42.805,6.029,13.3063,4.60101,2470.544,2023-1-07T02:21:55Z
2023-01-07T00:18:48Z,42.805,6.029,13.3061,4.60099,2470.591,2023-1-07T02:24:58Z
2023-01-07T00:21:51Z,42.805,6.029,13.3059,4.60105,2470.53,2023-1-07T02:28:01Z
2023-01-07T00:24:54Z,42.805,6.029,13.3069,4.60092,2470.553,2023-1-07T02:31:05Z
2023-01-07T00:27:57Z,42.805,6.029,13.3073,4.60119,2470.544,2023-1-07T02:34:08Z
2023-01-07T00:31:01Z,42.805,6.029,13.3058,4.60111,2470.544,2023-1-07T02:37:11Z
2023-01-07T00:34:04Z,42.805,6.029,13.3051,4.60099,2470.567,2023-1-07T02:40:14Z
2023-01-07T00:37:07Z,42.805,6.029,13.3056,4.60099,2470.53,2023-1-07T02:43:17Z
2023-01-07T00:40:10Z,42.805,6.029,13.3071,4.60103,2470.53,2023-1-07T02:46:20Z
2023-01-07T00:43:13Z,42.805,6.029,13.3060,4.60098,2470.53,2023-1-07T02:49:23Z
2023-01-07T00:46:16Z,42.805,6.029,13.3068,4.60101,2470.544,2023-1-07T02:52:26Z
2023-01-07T00:49:19Z,42.805,6.029,13.3070,4.60104,2470.567,2023-1-07T02:55:29Z
2023-01-07T00:52:22Z,42.805,6.029,13.3061,4.60102,2470.553,2023-1-07T02:58:32Z
2023-01-07T00:55:25Z,42.805,6.029,13.3063,4.60095,2470.544,2023-1-07T03:01:35Z
2023-01-07T00:58:28Z,42.805,6.029,13.3056,4.60100,2470.567,2023-1-07T03:04:38Z
2023-01-07T01:01:31Z,42.805,6.029,13.3063,4.60092,2470.53,2023-1-07T03:07:42Z
2023-01-07T01:04:34Z,42.805,6.029,13.3061,4.60096,2470.53,2023-1-07T03:10:45Z
2023-01-07T01:07:38Z,42.805,6.029,13.3056,4.60093,2470.544,2023-1-07T03:13:48Z
2023-01-07T01:10:41Z,42.805,6.029,13.3054,4.60092,2470.544,2023-1-07T03:16:51Z
2023-01-07T01:13:44Z,42.805,6.029,13.3051,4.60096,2470.544,2023-1-07T03:19:54Z
2023-01-07T01:16:47Z,42.805,6.029,13.3058,4.60112,2470.567,2023-1-07T03:22:57Z
2023-01-07T01:19:50Z,42.805,6.029,13.3090,4.60107,2470.567,2023-1-07T03:26:00Z
2023-01-07T01:22:53Z,42.805,6.029,13.3072,4.60097,2470.553,2023-1-07T03:29:03Z
2023-01-07T01:25:56Z,42.805,6.029,13.3058,4.60090,2470.567,2023-1-07T03:32:06Z
2023-01-07T01:28:59Z,42.805,6.029,13.3071,4.60104,2470.544,2023-1-07T03:35:09Z
2023-01-07T01:32:02Z,42.805,6.029,13.3056,4.60103,2470.553,2023-1-07T03:38:12Z
2023-01-07T01:35:05Z,42.805,6.029,13.3054,4.60085,2470.53,2023-1-07T03:41:15Z
2023-01-07T01:38:08Z,42.805,6.029,13.3041,4.60113,2470.53,2023-1-07T03:44:19Z
2023-01-07T01:41:11Z,42.805,6.029,13.3054,4.60092,2470.53,2023-1-07T03:47:22Z
2023-01-07T01:44:15Z,42.805,6.029,13.3042,4.60089,2470.52,2023-1-07T03:50:25Z
2023-01-07T01:47:18Z,42.805,6.029,13.3049,4.60088,2470.567,2023-1-07T03:53:28Z
2023-01-07T01:50:21Z,42.805,6.029,13.3049,4.60089,2470.544,2023-1-07T03:56:31Z
2023-01-07T01:53:24Z,42.805,6.029,13.3053,4.60095,2470.544,2023-1-07T03:59:34Z
2023-01-07T01:56:27Z,42.805,6.029,13.3055,4.60093,2470.553,2023-1-07T04:02:37Z
2023-01-07T01:59:30Z,42.805,6.029,13.3041,4.60098,2470.53,2023-1-07T04:05:40Z
2023-01-07T02:02:33Z,42.805,6.029,13.3037,4.60097,2470.567,2023-1-07T04:08:43Z
2023-01-07T02:05:36Z,42.805,6.029,13.3048,4.60089,2470.567,2023-1-07T04:11:46Z
2023-01-07T02:08:39Z,42.805,6.029,13.3043,4.60105,2470.577,2023-1-07T04:14:49Z
2023-01-07T02:11:42Z,42.805,6.029,13.3054,4.60099,2470.53,2023-1-07T04:17:53Z
2023-01-07T02:14:45Z,42.805,6.029,13.3049,4.60094,2470.553,2023-1-07T04:20:56Z
2023-01-07T02:17:48Z,42.805,6.029,13.3049,4.60091,2470.577,2023-1-07T04:23:59Z
2023-01-07T02:20:52Z,42.805,6.029,13.3054,4.60090,2470.567,2023-1-07T04:27:02Z
2023-01-07T02:23:55Z,42.805,6.029,13.3046,4.60100,2470.567,2023-1-07T04:30:05Z
2023-01-07T02:26:58Z,42.805,6.029,13.3054,4.60102,2470.53,2023-1-07T04:33:08Z
2023-01-07T02:30:01Z,42.805,6.029,13.3053,4.60087,2470.553,2023-1-07T04:36:11Z
2023-01-07T02:33:04Z,42.805,6.029,13.3045,4.60088,2470.567,2023-1-07T04:39:14Z
2023-01-07T02:36:07Z,42.805,6.029,13.3054,4.60110,2470.567,2023-1-07T04:42:17Z
2023-01-07T02:39:10Z,42.805,6.029,13.3057,4.60089,2470.53,2023-1-07T04:45:20Z
2023-01-07T02:42:13Z,42.805,6.029,13.3060,4.60104,2470.577,2023-1-07T04:48:23Z
2023-01-07T02:45:16Z,42.805,6.029,13.3051,4.60097,2470.544,2023-1-07T04:51:26Z
2023-01-07T02:48:19Z,42.805,6.029,13.3049,4.60102,2470.553,2023-1-07T04:54:29Z
2023-01-07T02:51:22Z,42.805,6.029,13.3051,4.60096,2470.6,2023-1-07T04:57:33Z
2023-01-07T02:54:25Z,42.805,6.029,13.3055,4.60102,2470.567,2023-1-07T05:00:36Z
2023-01-07T02:57:28Z,42.805,6.029,13.3054,4.60096,2470.614,2023-1-07T05:03:39Z
2023-01-07T03:00:32Z,42.805,6.029,13.3058,4.60102,2470.591,2023-1-07T05:06:42Z
2023-01-07T03:03:35Z,42.805,6.029,13.3061,4.60104,2470.553,2023-1-07T05:09:45Z
2023-01-07T03:06:38Z,42.805,6.029,13.3064,4.60102,2470.53,2023-1-07T05:12:48Z
2023-01-07T03:09:41Z,42.805,6.029,13.3067,4.60104,2470.577,2023-1-07T05:15:51Z
2023-01-07T03:12:44Z,42.805,6.029,13.3067,4.60093,2470.567,2023-1-07T05:18:54Z
2023-01-07T03:15:47Z,42.805,6.029,13.3061,4.60103,2470.591,2023-1-07T05:21:57Z
2023-01-07T03:18:50Z,42.805,6.029,13.3056,4.60097,2470.591,2023-1-07T05:25:00Z
2023-01-07T03:21:53Z,42.805,6.029,13.3054,4.60099,2470.591,2023-1-07T05:28:03Z
2023-01-07T03:24:56Z,42.805,6.029,13.3052,4.60094,2470.6,2023-1-07T05:31:06Z
2023-01-07T03:27:59Z,42.805,6.029,13.3045,4.60112,2470.6,2023-1-07T05:34:10Z
2023-01-07T03:31:02Z,42.805,6.029,13.3050,4.60099,2470.6,2023-1-07T05:37:13Z
2023-01-07T03:34:05Z,42.805,6.029,13.3050,4.60112,2470.6,2023-1-07T05:40:16Z
2023-01-07T03:37:09Z,42.805,6.029,13.3052,4.60108,2470.567,2023-1-07T05:43:19Z
2023-01-07T03:40:12Z,42.805,6.029,13.3061,4.60098,2470.614,2023-1-07T05:46:22Z
2023-01-07T03:43:15Z,42.805,6.029,13.3054,4.60096,2470.591,2023-1-07T05:49:25Z
2023-01-07T03:46:18Z,42.805,6.029,13.3055,4.60110,2470.661,2023-1-07T05:52:28Z
2023-01-07T03:49:21Z,42.805,6.029,13.3053,4.60098,2470.577,2023-1-07T05:55:31Z
2023-01-07T03:52:24Z,42.805,6.029,13.3063,4.60098,2470.614,2023-1-07T05:58:34Z
2023-01-07T03:55:27Z,42.805,6.029,13.3061,4.60095,2470.614,2023-1-07T06:01:37Z
2023-01-07T03:58:30Z,42.805,6.029,13.3047,4.60108,2470.624,2023-1-07T06:04:40Z
2023-01-07T04:01:33Z,42.805,6.029,13.3023,4.60122,2470.6,2023-1-07T06:07:43Z
2023-01-07T04:04:36Z,42.805,6.029,13.3054,4.60107,2470.637,2023-1-07T06:10:47Z
2023-01-07T04:07:39Z,42.805,6.029,13.3064,4.60099,2470.624,2023-1-07T06:13:50Z
2023-01-07T04:10:42Z,42.805,6.029,13.3080,4.60123,2470.6,2023-1-07T06:16:53Z
2023-01-07T04:13:46Z,42.805,6.029,13.3066,4.60114,2470.614,2023-1-07T06:19:56Z
2023-01-07T04:16:49Z,42.805,6.029,13.3071,4.60125,2470.661,2023-1-07T06:22:59Z
2023-01-07T04:19:52Z,42.805,6.029,13.3071,4.60142,2470.637,2023-1-07T06:26:02Z
2023-01-07T04:22:55Z,42.805,6.029,13.3014,4.60170,2470.646,2023-1-07T06:29:05Z
2023-01-07T04:25:58Z,42.805,6.029,13.3009,4.60143,2470.614,2023-1-07T06:32:08Z
2023-01-07T04:29:01Z,42.805,6.029,13.3012,4.60112,2470.646,2023-1-07T06:35:11Z
2023-01-07T04:32:04Z,42.805,6.029,13.3011,4.60091,2470.661,2023-1-07T06:38:14Z
2023-01-07T04:35:07Z,42.805,6.029,13.3007,4.60098,2470.637,2023-1-07T06:41:17Z
2023-01-07T04:38:10Z,42.805,6.029,13.3014,4.60109,2470.646,2023-1-07T06:44:20Z
2023-01-07T04:41:13Z,42.805,6.029,13.3008,4.60099,2470.661,2023-1-07T06:47:24Z
2023-01-07T04:44:16Z,42.805,6.029,13.3007,4.60087,2470.67,2023-1-07T06:50:27Z
2023-01-07T04:47:19Z,42.805,6.029,13.3012,4.60101,2470.67,2023-1-07T06:53:30Z
2023-01-07T04:50:22Z,42.805,6.029,13.3015,4.60125,2470.67,2023-1-07T06:56:33Z
2023-01-07T04:53:26Z,42.805,6.029,13.3020,4.60097,2470.67,2023-1-07T06:59:36Z
2023-01-07T04:56:29Z,42.805,6.029,13.3014,4.60099,2470.684,2023-1-07T07:02:39Z
2023-01-07T04:59:32Z,42.805,6.029,13.3048,4.60106,2470.67,2023-1-07T07:05:42Z
2023-01-07T05:02:35Z,42.805,6.029,13.3015,4.60098,2470.684,2023-1-07T07:08:45Z
2023-01-07T05:05:38Z,42.805,6.029,13.3019,4.60094,2470.67,2023-1-07T07:11:48Z
2023-01-07T05:08:41Z,42.805,6.029,13.3006,4.60144,2470.693,2023-1-07T07:14:51Z
2023-01-07T05:11:44Z,42.805,6.029,13.3011,4.60097,2470.693,2023-1-07T07:17:54Z
2023-01-07T05:14:47Z,42.805,6.029,13.3011,4.60092,2470.67,2023-1-07T07:20:57Z
2023-01-07T05:17:50Z,42.805,6.029,13.3008,4.60102,2470.707,2023-1-07T07:24:01Z
2023-01-07T05:20:53Z,42.805,6.029,13.3007,4.60107,2470.717,2023-1-07T07:27:04Z
2023-01-07T05:23:56Z,42.805,6.029,13.3009,4.60104,2470.717,2023-1-07T07:30:07Z
2023-01-07T05:26:59Z,42.805,6.029,13.3009,4.60162,2470.717,2023-1-07T07:33:10Z
2023-01-07T05:30:03Z,42.805,6.029,13.3007,4.60114,2470.707,2023-1-07T07:36:13Z
2023-01-07T05:33:06Z,42.805,6.029,13.3014,4.60104,2470.73,2023-1-07T07:39:16Z
2023-01-07T05:36:09Z,42.805,6.029,13.3009,4.60090,2470.693,2023-1-07T07:42:19Z
2023-01-07T05:39:12Z,42.805,6.029,13.3014,4.60107,2470.754,2023-1-07T07:45:22Z
2023-01-07T05:42:15Z,42.805,6.029,13.3015,4.60139,2470.73,2023-1-07T07:48:25Z
2023-01-07T05:45:18Z,42.805,6.029,13.3011,4.60171,2470.73,2023-1-07T07:51:28Z
2023-01-07T05:48:21Z,42.805,6.029,13.3011,4.60185,2470.717,2023-1-07T07:54:31Z
2023-01-07T05:51:24Z,42.805,6.029,13.3005,4.60154,2470.74,2023-1-07T07:57:34Z
2023-01-07T05:54:27Z,42.805,6.029,13.3011,4.60130,2470.74,2023-1-07T08:00:38Z
2023-01-07T05:57:30Z,42.805,6.029,13.3009,4.60105,2470.717,2023-1-07T08:03:41Z
2023-01-07T06:00:33Z,42.805,6.029,13.3011,4.60104,2470.74,2023-1-07T08:06:44Z
2023-01-07T06:03:36Z,42.805,6.029,13.3008,4.60098,2470.754,2023-1-07T08:09:47Z
2023-01-07T06:06:39Z,42.805,6.029,13.3010,4.60119,2470.74,2023-1-07T08:12:50Z
2023-01-07T06:09:43Z,42.805,6.029,13.3014,4.60142,2470.74,2023-1-07T08:15:53Z
2023-01-07T06:12:46Z,42.805,6.029,13.3009,4.60174,2470.74,2023-1-07T08:18:56Z
2023-01-07T06:15:49Z,42.805,6.029,13.3013,4.60132,2470.763,2023-1-07T08:21:59Z
2023-01-07T06:18:52Z,42.805,6.029,13.3009,4.60157,2470.787,2023-1-07T08:25:02Z
2023-01-07T06:21:55Z,42.805,6.029,13.3014,4.60165,2470.763,2023-1-07T08:28:05Z
2023-01-07T06:24:58Z,42.805,6.029,13.3013,4.60185,2470.8,2023-1-07T08:31:08Z
2023-01-07T06:28:01Z,42.805,6.029,13.3010,4.60178,2470.763,2023-1-07T08:34:11Z
2023-01-07T06:31:04Z,42.805,6.029,13.3010,4.60171,2470.754,2023-1-07T08:37:15Z
2023-01-07T06:34:07Z,42.805,6.029,13.3014,4.60137,2470.787,2023-1-07T08:40:18Z
2023-01-07T06:37:10Z,42.805,6.029,13.3018,4.60114,2470.81,2023-1-07T08:43:21Z
2023-01-07T06:40:13Z,42.805,6.029,13.3036,4.60151,2470.787,2023-1-07T08:46:24Z
2023-01-07T06:43:17Z,42.805,6.029,13.3051,4.60150,2470.824,2023-1-07T08:49:27Z
2023-01-07T06:46:20Z,42.805,6.029,13.3012,4.60186,2470.8,2023-1-07T08:52:30Z
2023-01-07T06:49:23Z,42.805,6.029,13.3015,4.60173,2470.777,2023-1-07T08:55:33Z
2023-01-07T06:52:26Z,42.805,6.029,13.3041,4.60119,2470.81,2023-1-07T08:58:36Z
2023-01-07T06:55:29Z,42.805,6.029,13.3046,4.60125,2470.777,2023-1-07T09:01:39Z
2023-01-07T06:58:32Z,42.805,6.029,13.3056,4.60147,2470.763,2023-1-07T09:04:42Z
2023-01-07T07:01:35Z,42.805,6.029,13.3049,4.60117,2470.8,2023-1-07T09:07:45Z
2023-01-07T07:04:38Z,42.805,6.029,13.3051,4.60133,2470.787,2023-1-07T09:10:48Z
2023-01-07T07:07:41Z,42.805,6.029,13.3070,4.60138,2470.8,2023-1-07T09:13:52Z
2023-01-07T07:10:44Z,42.805,6.029,13.3076,4.60159,2470.787,2023-1-07T09:16:55Z
2023-01-07T07:13:47Z,42.805,6.029,13.3073,4.60150,2470.787,2023-1-07T09:19:58Z
2023-01-07T07:16:50Z,42.805,6.029,13.3078,4.60155,2470.787,2023-1-07T09:23:01Z
2023-01-07T07:19:53Z,42.805,6.029,13.3086,4.60122,2470.8,2023-1-07T09:26:04Z
2023-01-07T07:22:57Z,42.805,6.029,13.3091,4.60108,2470.787,2023-1-07T09:29:07Z
2023-01-07T07:26:00Z,42.805,6.029,13.3098,4.60107,2470.74,2023-1-07T09:32:10Z
2023-01-07T07:29:03Z,42.805,6.029,13.3093,4.60106,2470.824,2023-1-07T09:35:13Z
2023-01-07T07:32:06Z,42.805,6.029,13.3042,4.60122,2470.787,2023-1-07T09:38:16Z
2023-01-07T07:35:09Z,42.805,6.029,13.3061,4.60145,2470.8,2023-1-07T09:41:19Z
2023-01-07T07:38:12Z,42.805,6.029,13.3074,4.60144,2470.777,2023-1-07T09:44:22Z
2023-01-07T07:41:15Z,42.805,6.029,13.3090,4.60135,2470.787,2023-1-07T09:47:25Z
2023-01-07T07:44:18Z,42.805,6.029,13.3089,4.60132,2470.777,2023-1-07T09:50:29Z
2023-01-07T07:47:21Z,42.805,6.029,13.3094,4.60140,2470.8,2023-1-07T09:53:32Z
2023-01-07T07:50:24Z,42.805,6.029,13.3098,4.60147,2470.824,2023-1-07T09:56:35Z
2023-01-07T07:53:27Z,42.805,6.029,13.3095,4.60144,2470.787,2023-1-07T09:59:38Z
2023-01-07T07:56:30Z,42.805,6.029,13.3099,4.60141,2470.8,2023-1-07T10:02:41Z
2023-01-07T07:59:34Z,42.805,6.029,13.3098,4.60140,2470.8,2023-1-07T10:05:44Z
2023-01-07T08:02:37Z,42.805,6.029,13.3099,4.60142,2470.8,2023-1-07T10:08:47Z
2023-01-07T08:05:40Z,42.805,6.029,13.3099,4.60142,2470.8,2023-1-07T10:11:50Z
2023-01-07T08:08:43Z,42.805,6.029,13.3094,4.60142,2470.777,2023-1-07T10:14:53Z
2023-01-07T08:11:46Z,42.805,6.029,13.3097,4.60132,2470.8,2023-1-07T10:17:56Z
2023-01-07T08:14:49Z,42.805,6.029,13.3102,4.60139,2470.777,2023-1-07T10:20:59Z
2023-01-07T08:17:52Z,42.805,6.029,13.3103,4.60125,2470.8,2023-1-07T10:24:03Z
2023-01-07T08:20:55Z,42.805,6.029,13.3096,4.60117,2470.81,2023-1-07T10:27:06Z
2023-01-07T08:23:58Z,42.805,6.029,13.3095,4.60132,2470.814,2023-1-07T10:30:09Z
2023-01-07T08:27:01Z,42.805,6.029,13.3105,4.60117,2470.8,2023-1-07T10:33:12Z
2023-01-07T08:30:04Z,42.805,6.029,13.3108,4.60109,2470.8,2023-1-07T10:36:15Z
2023-01-07T08:33:08Z,42.805,6.029,13.3104,4.60127,2470.833,2023-1-07T10:39:18Z
2023-01-07T08:36:11Z,42.805,6.029,13.3101,4.60158,2470.763,2023-1-07T10:42:21Z
2023-01-07T08:39:14Z,42.805,6.029,13.3101,4.60131,2470.81,2023-1-07T10:45:24Z
2023-01-07T08:42:17Z,42.805,6.029,13.3101,4.60117,2470.787,2023-1-07T10:48:27Z
2023-01-07T08:45:20Z,42.805,6.029,13.3091,4.60104,2470.8,2023-1-07T10:51:30Z
2023-01-07T08:48:23Z,42.805,6.029,13.3092,4.60104,2470.787,2023-1-07T10:54:33Z
2023-01-07T08:51:26Z,42.805,6.029,13.3099,4.60125,2470.8,2023-1-07T10:57:37Z
2023-01-07T08:54:29Z,42.805,6.029,13.3082,4.60137,2470.787,2023-1-07T11:00:40Z
2023-01-07T08:57:32Z,42.805,6.029,13.3080,4.60133,2470.763,2023-1-07T11:03:43Z
2023-01-07T09:00:35Z,42.805,6.029,13.3098,4.60104,2470.777,2023-1-07T11:06:46Z
2023-01-07T09:03:38Z,42.805,6.029,13.3093,4.60114,2470.763,2023-1-07T11:09:49Z
2023-01-07T09:06:41Z,42.805,6.029,13.3095,4.60106,2470.763,2023-1-07T11:12:52Z
2023-01-07T09:09:45Z,42.805,6.029,13.3089,4.60117,2470.81,2023-1-07T11:15:55Z
2023-01-07T09:12:48Z,42.805,6.029,13.3085,4.60096,2470.787,2023-1-07T11:18:58Z
2023-01-07T09:15:51Z,42.805,6.029,13.3077,4.60120,2470.763,2023-1-07T11:22:01Z
2023-01-07T09:18:54Z,42.805,6.029,13.3076,4.60102,2470.777,2023-1-07T11:25:04Z
2023-01-07T09:21:57Z,42.805,6.029,13.3073,4.60087,2470.777,2023-1-07T11:28:07Z
2023-01-07T09:25:00Z,42.805,6.029,13.3062,4.60104,2470.777,2023-1-07T11:31:10Z
2023-01-07T09:28:03Z,42.805,6.029,13.3055,4.60130,2470.763,2023-1-07T11:34:14Z
2023-01-07T09:31:06Z,42.805,6.029,13.3074,4.60116,2470.824,2023-1-07T11:37:17Z
2023-01-07T09:34:09Z,42.805,6.029,13.3082,4.60087,2470.8,2023-1-07T11:40:20Z
2023-01-07T09:37:12Z,42.805,6.029,13.3083,4.60104,2470.8,2023-1-07T11:43:23Z
2023-01-07T09:40:15Z,42.805,6.029,13.3087,4.60125,2470.787,2023-1-07T11:46:26Z
2023-01-07T09:43:19Z,42.805,6.029,13.3088,4.60099,2470.787,2023-1-07T11:49:29Z
2023-01-07T09:46:22Z,42.805,6.029,13.3088,4.60097,2470.74,2023-1-07T11:52:32Z
2023-01-07T09:49:25Z,42.805,6.029,13.3089,4.60124,2470.777,2023-1-07T11:55:35Z
2023-01-07T09:52:28Z,42.805,6.029,13.3082,4.60089,2470.763,2023-1-07T11:58:38Z
2023-01-07T09:55:31Z,42.805,6.029,13.3075,4.60099,2470.754,2023-1-07T12:01:41Z
2023-01-07T09:58:34Z,42.805,6.029,13.3069,4.60111,2470.787,2023-1-07T12:04:44Z
2023-01-07T10:01:37Z,42.805,6.029,13.3060,4.60129,2470.777,2023-1-07T12:07:48Z
2023-01-07T10:04:40Z,42.805,6.029,13.3054,4.60094,2470.777,2023-1-07T12:10:51Z
2023-01-07T10:07:43Z,42.805,6.029,13.3053,4.60099,2470.777,2023-1-07T12:13:54Z
2023-01-07T10:10:46Z,42.805,6.029,13.3056,4.60099,2470.754,2023-1-07T12:16:57Z
2023-01-07T10:13:49Z,42.805,6.029,13.3068,4.60087,2470.763,2023-1-07T12:20:00Z
2023-01-07T10:16:52Z,42.805,6.029,13.3082,4.60092,2470.754,2023-1-07T12:23:03Z
2023-01-07T10:19:56Z,42.805,6.029,13.3076,4.60102,2470.754,2023-1-07T12:26:06Z
2023-01-07T10:22:59Z,42.805,6.029,13.3078,4.60102,2470.763,2023-1-07T12:29:09Z
2023-01-07T10:26:02Z,42.805,6.029,13.3068,4.60112,2470.754,2023-1-07T12:32:12Z
2023-01-07T10:29:05Z,42.805,6.029,13.3054,4.60129,2470.777,2023-1-07T12:35:15Z
2023-01-07T10:32:08Z,42.805,6.029,13.3051,4.60121,2470.74,2023-1-07T12:38:18Z
2023-01-07T10:35:11Z,42.805,6.029,13.3067,4.60095,2470.73,2023-1-07T12:41:22Z
2023-01-07T10:38:14Z,42.805,6.029,13.3071,4.60084,2470.787,2023-1-07T12:44:25Z
2023-01-07T10:41:17Z,42.805,6.029,13.3063,4.60093,2470.717,2023-1-07T12:47:28Z
2023-01-07T10:44:20Z,42.805,6.029,13.3072,4.60102,2470.717,2023-1-07T12:50:31Z
2023-01-07T10:47:23Z,42.805,6.029,13.3066,4.60104,2470.754,2023-1-07T12:53:34Z
2023-01-07T10:50:26Z,42.805,6.029,13.3056,4.60110,2470.754,2023-1-07T12:56:37Z
2023-01-07T10:53:30Z,42.805,6.029,13.3069,4.60103,2470.717,2023-1-07T12:59:40Z
2023-01-07T10:56:33Z,42.805,6.029,13.3069,4.60105,2470.707,2023-1-07T13:02:43Z
2023-01-07T10:59:36Z,42.805,6.029,13.3073,4.60112,2470.717,2023-1-07T13:05:46Z
2023-01-07T11:02:39Z,42.805,6.029,13.3076,4.60092,2470.74,2023-1-07T13:08:49Z
2023-01-07T11:05:42Z,42.805,6.029,13.3073,4.60118,2470.74,2023-1-07T13:11:52Z
2023-01-07T11:08:45Z,42.805,6.029,13.3070,4.60111,2470.73,2023-1-07T13:14:56Z
2023-01-07T11:11:48Z,42.805,6.029,13.3072,4.60110,2470.717,2023-1-07T13:17:59Z
2023-01-07T11:14:51Z,42.805,6.029,13.3076,4.60134,2470.73,2023-1-07T13:21:02Z
2023-01-07T11:17:54Z,42.805,6.029,13.3089,4.60112,2470.73,2023-1-07T13:24:05Z
2023-01-07T11:20:57Z,42.805,6.029,13.3087,4.60110,2470.693,2023-1-07T13:27:08Z
2023-01-07T11:24:00Z,42.805,6.029,13.3088,4.60112,2470.73,2023-1-07T13:30:11Z
2023-01-07T11:27:03Z,42.805,6.029,13.3085,4.60107,2470.744,2023-1-07T13:33:14Z
2023-01-07T11:30:07Z,42.805,6.029,13.3082,4.60110,2470.717,2023-1-07T13:36:17Z
2023-01-07T11:33:10Z,42.805,6.029,13.3082,4.60113,2470.707,2023-1-07T13:39:20Z
2023-01-07T11:36:13Z,42.805,6.029,13.3093,4.60112,2470.646,2023-1-07T13:42:23Z
2023-01-07T11:39:16Z,42.805,6.029,13.3084,4.60105,2470.693,2023-1-07T13:45:26Z
2023-01-07T11:42:19Z,42.805,6.029,13.3076,4.60114,2470.717,2023-1-07T13:48:30Z
2023-01-07T11:45:22Z,42.805,6.029,13.3070,4.60117,2470.707,2023-1-07T13:51:33Z
2023-01-07T11:48:25Z,42.805,6.029,13.3082,4.60114,2470.684,2023-1-07T13:54:36Z
2023-01-07T11:51:28Z,42.805,6.029,13.3070,4.60141,2470.707,2023-1-07T13:57:39Z
2023-01-07T11:54:31Z,42.805,6.029,13.3076,4.60149,2470.67,2023-1-07T14:00:42Z
2023-01-07T11:57:34Z,42.805,6.029,13.3081,4.60123,2470.67,2023-1-07T14:03:45Z
2023-01-07T12:00:37Z,42.805,6.029,13.3078,4.60098,2470.684,2023-1-07T14:06:48Z
2023-01-07T12:03:41Z,42.805,6.029,13.3071,4.60099,2470.684,2023-1-07T14:09:51Z
2023-01-07T12:06:44Z,42.805,6.029,13.3073,4.60097,2470.67,2023-1-07T14:12:54Z
2023-01-07T12:09:47Z,42.805,6.029,13.3076,4.60084,2470.684,2023-1-07T14:15:57Z
2023-01-07T12:12:50Z,42.805,6.029,13.3069,4.60098,2470.661,2023-1-07T14:19:00Z
2023-01-07T12:15:53Z,42.805,6.029,13.3073,4.60100,2470.684,2023-1-07T14:22:03Z
2023-01-07T12:18:56Z,42.805,6.029,13.3078,4.60123,2470.693,2023-1-07T14:25:07Z
2023-01-07T12:21:59Z,42.805,6.029,13.3092,4.60117,2470.646,2023-1-07T14:28:10Z
2023-01-07T12:25:02Z,42.805,6.029,13.3094,4.60116,2470.637,2023-1-07T14:31:13Z
2023-01-07T12:28:05Z,42.805,6.029,13.3089,4.60092,2470.637,2023-1-07T14:34:16Z
2023-01-07T12:31:08Z,42.805,6.029,13.3089,4.60099,2470.684,2023-1-07T14:37:19Z
2023-01-07T12:34:11Z,42.805,6.029,13.3083,4.60105,2470.67,2023-1-07T14:40:22Z
2023-01-07T12:37:14Z,42.805,6.029,13.3077,4.60094,2470.637,2023-1-07T14:43:25Z
2023-01-07T12:40:18Z,42.805,6.029,13.3069,4.60105,2470.684,2023-1-07T14:46:28Z
2023-01-07T12:43:21Z,42.805,6.029,13.3078,4.60111,2470.646,2023-1-07T14:49:31Z
2023-01-07T12:46:24Z,42.805,6.029,13.3076,4.60116,2470.661,2023-1-07T14:52:34Z
2023-01-07T12:49:27Z,42.805,6.029,13.3078,4.60125,2470.637,2023-1-07T14:55:37Z
2023-01-07T12:52:30Z,42.805,6.029,13.3076,4.60117,2470.661,2023-1-07T14:58:41Z
2023-01-07T12:55:33Z,42.805,6.029,13.3058,4.60123,2470.637,2023-1-07T15:01:44Z
2023-01-07T12:58:36Z,42.805,6.029,13.3054,4.60132,2470.624,2023-1-07T15:04:47Z
2023-01-07T13:01:39Z,42.805,6.029,13.3061,4.60105,2470.67,2023-1-07T15:07:50Z
2023-01-07T13:04:42Z,42.805,6.029,13.3057,4.60122,2470.624,2023-1-07T15:10:53Z
2023-01-07T13:07:45Z,42.805,6.029,13.3058,4.60133,2470.684,2023-1-07T15:13:56Z
2023-01-07T13:10:48Z,42.805,6.029,13.3073,4.60109,2470.624,2023-1-07T15:16:59Z
2023-01-07T13:13:52Z,42.805,6.029,13.3070,4.60122,2470.614,2023-1-07T15:20:02Z
2023-01-07T13:16:55Z,42.805,6.029,13.3070,4.60117,2470.614,2023-1-07T15:23:05Z
2023-01-07T13:19:58Z,42.805,6.029,13.3073,4.60144,2470.661,2023-1-07T15:26:08Z
2023-01-07T13:23:01Z,42.805,6.029,13.3082,4.60128,2470.624,2023-1-07T15:29:11Z
2023-01-07T13:26:04Z,42.805,6.029,13.3071,4.60112,2470.661,2023-1-07T15:32:14Z
2023-01-07T13:29:07Z,42.805,6.029,13.3076,4.60108,2470.624,2023-1-07T15:35:18Z
2023-01-07T13:32:10Z,42.805,6.029,13.3069,4.60123,2470.637,2023-1-07T15:38:21Z
2023-01-07T13:35:13Z,42.805,6.029,13.3074,4.60106,2470.646,2023-1-07T15:41:24Z
2023-01-07T13:38:16Z,42.805,6.029,13.3067,4.60085,2470.6,2023-1-07T15:44:27Z
2023-01-07T13:41:19Z,42.805,6.029,13.3067,4.60116,2470.6,2023-1-07T15:47:30Z
2023-01-07T13:44:22Z,42.805,6.029,13.3058,4.60099,2470.661,2023-1-07T15:50:33Z
2023-01-07T13:47:25Z,42.805,6.029,13.3056,4.60125,2470.614,2023-1-07T15:53:36Z
2023-01-07T13:50:29Z,42.805,6.029,13.3058,4.60113,2470.614,2023-1-07T15:56:39Z
2023-01-07T13:53:32Z,42.805,6.029,13.3064,4.60127,2470.577,2023-1-07T15:59:42Z
2023-01-07T13:56:35Z,42.805,6.029,13.3084,4.60121,2470.624,2023-1-07T16:02:45Z
2023-01-07T13:59:38Z,42.805,6.029,13.3070,4.60106,2470.577,2023-1-07T16:05:48Z
2023-01-07T14:02:41Z,42.805,6.029,13.3080,4.60084,2470.614,2023-1-07T16:08:52Z
2023-01-07T14:05:44Z,42.805,6.029,13.3070,4.60104,2470.646,2023-1-07T16:11:55Z
2023-01-07T14:08:47Z,42.805,6.029,13.3053,4.60120,2470.624,2023-1-07T16:14:58Z
2023-01-07T14:11:50Z,42.805,6.029,13.3041,4.60089,2470.637,2023-1-07T16:18:01Z
2023-01-07T14:14:53Z,42.805,6.029,13.3039,4.60145,2470.6,2023-1-07T16:21:04Z
2023-01-07T14:17:56Z,42.805,6.029,13.3048,4.60122,2470.577,2023-1-07T16:24:07Z
2023-01-07T14:20:59Z,42.805,6.029,13.3056,4.60116,2470.624,2023-1-07T16:27:10Z
2023-01-07T14:24:02Z,42.805,6.029,13.3046,4.60119,2470.6,2023-1-07T16:30:13Z
2023-01-07T14:27:06Z,42.805,6.029,13.3046,4.60110,2470.614,2023-1-07T16:33:16Z
2023-01-07T14:30:09Z,42.805,6.029,13.3037,4.60108,2470.637,2023-1-07T16:36:19Z
2023-01-07T14:33:12Z,42.805,6.029,13.3061,4.60112,2470.614,2023-1-07T16:39:22Z
2023-01-07T14:36:15Z,42.805,6.029,13.3048,4.60117,2470.6,2023-1-07T16:42:25Z
2023-01-07T14:39:18Z,42.805,6.029,13.3061,4.60092,2470.637,2023-1-07T16:45:29Z
2023-01-07T14:42:21Z,42.805,6.029,13.3056,4.60087,2470.614,2023-1-07T16:48:32Z
2023-01-07T14:45:24Z,42.805,6.029,13.3060,4.60097,2470.577,2023-1-07T16:51:35Z
2023-01-07T14:48:27Z,42.805,6.029,13.3051,4.60079,2470.6,2023-1-07T16:54:38Z
2023-01-07T14:51:30Z,42.805,6.029,13.3044,4.60116,2470.614,2023-1-07T16:57:41Z
2023-01-07T14:54:33Z,42.805,6.029,13.3049,4.60104,2470.6,2023-1-07T17:00:44Z
2023-01-07T14:57:36Z,42.805,6.029,13.3067,4.60087,2470.624,2023-1-07T17:03:47Z
2023-01-07T15:00:40Z,42.805,6.029,13.3047,4.60099,2470.637,2023-1-07T17:06:50Z
2023-01-07T15:03:43Z,42.805,6.029,13.3094,4.60083,2470.614,2023-1-07T17:09:53Z
2023-01-07T15:06:46Z,42.805,6.029,13.3089,4.60115,2470.6,2023-1-07T17:12:56Z
2023-01-07T15:09:49Z,42.805,6.029,13.3087,4.60111,2470.6,2023-1-07T17:15:59Z
2023-01-07T15:12:52Z,42.805,6.029,13.3081,4.60097,2470.591,2023-1-07T17:19:03Z